Regional Weather Roundup
Issued by NWS

Home | Current Version | Previous Version | Graphics & Text | Print | Product List | Glossary On
Versions: 1 2 3 4 5 6 7 8 9 10 11 12 13 14 15 16 17 18 19 20 21 22 23 24 25 26 27 28 29 30 31 32 33 34 35 36 37 38 39 40 41 42 43 44 45 46 47 48 49 50
000
ASUS43 KOAX 010302
RWRNE

WEATHER ROUNDUP FOR NEBRASKA
NATIONAL WEATHER SERVICE OMAHA NE
1000 PM CDT TUE JUN 30 2015

NOTES: SATELLITE DATA IS BEING USED TO AUGMENT CLOUD COVER ABOVE
       12000 FEET.
       "FAIR" INDICATES FEW OR NO CLOUDS BELOW 12,000 FEET WITH NO
       SIGNIFICANT WEATHER AND/OR OBSTRUCTIONS TO VISIBILITY.

  * THESE STATIONS DO NOT REPORT WEATHER SUCH AS RAIN...SNOW OR FOG.

NEZ001>004-019>022-054>056-010400-
NEBRASKA PANHANDLE

CITY           SKY/WX    TMP DP  RH WIND       PRES   REMARKS
SCOTTSBLUFF    MOCLDY    81  58  45 N6        29.95R
ALLIANCE       MOCLDY    75  64  68 N9        29.93R
CHADRON        MOCLDY    74  67  78 NE3       29.91R
KIMBALL          N/A    N/A N/A N/A MISG        N/A
SIDNEY         MOCLDY    72  63  73 W7        29.97S
$$

NEZ057>060-069>072-079>082-010400-
SOUTHWEST NEBRASKA

CITY           SKY/WX    TMP DP  RH WIND       PRES   REMARKS
NORTH PLATTE   MOCLDY    79  69  71 E7        29.83S
IMPERIAL       MOCLDY    79  64  60 CALM      29.88R
LEXINGTON      CLOUDY    81  66  61 E6        29.83S
MCCOOK         PTCLDY    85  58  39 E8        29.83R
$$

NEZ005>010-023>029-035>040-094-010400-
NORTH CENTRAL NEBRASKA

CITY           SKY/WX    TMP DP  RH WIND       PRES   REMARKS
VALENTINE      MOCLDY    72  64  76 E12       29.89R
AINSWORTH      CLOUDY    70  63  80 SE14      29.89S
BROKEN BOW     MOCLDY    76  69  79 E10       29.86R
ORD            CLOUDY    73  60  63 E10       29.86R
$$

NEZ041-046>049-061>064-073>077-083>087-010400-
SOUTH CENTRAL NEBRASKA

CITY           SKY/WX    TMP DP  RH WIND       PRES   REMARKS
GRAND ISLAND   MOCLDY    75  62  64 E13       29.86S
AURORA         CLOUDY    74  63  68 E12       29.86R
HASTINGS       MOCLDY    78  69  73 E10       29.84R
HEBRON         CLOUDY    79  68  69 E6        29.83R
HOLDREGE       CLOUDY    80  60  50 E7        29.83R
KEARNEY *      MOCLDY    79  66  65 E12       29.84R
$$

NEZ011>018-030>034-042>045-010400-
NORTHEAST NEBRASKA

CITY           SKY/WX    TMP DP  RH WIND       PRES   REMARKS
NORFOLK        CLOUDY    70  64  81 E8        29.89S
ALBION         CLOUDY    70  64  79 E9        29.89S
BLAIR          CLOUDY    70  64  81 CALM      29.93R
COLUMBUS *     CLOUDY   N/A N/A N/A E7        29.89R
FREMONT        LGT RAIN  73  65  77 NE3       29.91F
TEKAMAH        TSTM      71  68  90 SE8       29.90R
WAYNE          CLOUDY    69  67  93 CALM      29.91F
$$

NEZ050>053-065>068-078-088>093-010400-
SOUTHEAST NEBRASKA

CITY           SKY/WX    TMP DP  RH WIND       PRES   REMARKS
LINCOLN        CLOUDY    73  66  78 E9        29.88F
OMAHA EPPLEY   CLOUDY    72  67  84 SE5       29.90R
BEATRICE       CLOUDY    77  65  67 E9        29.86R
FALLS CITY     LGT RAIN  74  67  78 SE6       29.89R
NEBRASKA CITY  CLOUDY    73  61  64 E5        29.91R
PLATTSMOUTH    LGT RAIN  73  62  70 CALM      29.92R
$$

NEZ044-045-051>053-067-010400-
OMAHA AREA

CITY           SKY/WX    TMP DP  RH WIND       PRES   REMARKS
OMAHA EPPLEY   CLOUDY    72  67  84 SE5       29.90R
BLAIR          CLOUDY    70  64  81 CALM      29.93R
FREMONT        LGT RAIN  73  65  77 NE3       29.91F
MILLARD        LGT RAIN  71  66  84 CALM      29.91R
OFFUTT AFB     LGT RAIN  70  66  88 E1        29.91R
PLATTSMOUTH    LGT RAIN  73  62  70 CALM      29.92R
WAHOO          FAIR      72  67  84 E8        29.90F
$$



USA.gov is the U.S. government's official web portal to all federal, state and local government web resources and services.